Regional Weather Roundup
Issued by NWS

Home | Current Version | Previous Version | Graphics & Text | Print | Product List | Glossary On
Versions: 1 2 3 4 5 6 7 8 9 10 11 12 13 14 15 16 17 18 19 20 21 22 23 24 25 26 27 28 29 30 31 32 33 34 35 36 37 38 39 40 41 42 43 44 45 46 47 48 49 50
000
ASUS45 KBOI 211010
RWRID
WEATHER ROUNDUP FOR IDAHO
NATIONAL WEATHER SERVICE BOISE ID
300 AM MST SUN DEC 21 2014

NOTE: "FAIR" INDICATES FEW OR NO CLOUDS BELOW 12000 FEET
WITH NO SIGNIFICANT WEATHER AND/OR OBSTRUCTIONS TO VISIBILITY

IDZ012-014-211100-
SOUTHWEST IDAHO


CITY           SKY/WX    TMP DP  RH WIND       PRES   REMARKS
BOISE          LGT RAIN  41  38  89 SE10      29.86S
CALDWELL       CLOUDY    43  36  75 NE13      29.85F
MOUNTAIN HOME  LGT RAIN  41  39  94 E10       29.88R
$$

IDZ016-017-211100-
SOUTHCENTRAL IDAHO


CITY           SKY/WX    TMP DP  RH WIND       PRES   REMARKS
BURLEY         LGT RAIN  40  36  86 SW18G26   29.89S WCI  31
JEROME         LGT RAIN  39  38  96 S7        29.90R WCI  34
TWIN FALLS     LGT RAIN  43  38  82 S16       29.88R
$$

IDZ019>023-211100-
SOUTHEAST IDAHO


CITY           SKY/WX    TMP DP  RH WIND       PRES   REMARKS
IDAHO FALLS    CLOUDY    35  33  92 S22G28    29.84F WCI  23
POCATELLO      LGT RAIN  38  36  92 S17       29.89F WCI  28
REXBURG        CLOUDY    33  33 100 S20G26    29.82S WCI  21
$$

IDZ006-010-011-018-031-032-211100-
CENTRAL IDAHO MOUNTAINS


CITY           SKY/WX    TMP DP  RH WIND       PRES   REMARKS
MCCALL         LGT SNOW  33  32  96 VRB3      29.75R FOG
HAILEY         LGT SNOW  32  32 100 CALM      29.88F
STANLEY          N/A     34  31  88 SE8       29.78F WCI  27
SALMON         CLOUDY    34  30  86 N5        29.69F WCI  30
CHALLIS        MIX PCPN  32  32 100 CALM      29.73F
$$

IDZ002-004-006-007-026-211100-
NORTHERN IDAHO


CITY           SKY/WX    TMP DP  RH WIND       PRES   REMARKS
LEWISTON       LGT RAIN  53  43  68 SW24G30   29.53R
LOWELL           N/A     39  37  92 CALM      29.65F
COEUR D`ALENE  CLOUDY    43  39  87 S10       29.44S
MULLAN PASS    LGT SNOW  31  28  89 VRB5      29.44F VSB 3/4 WCI  26
$$



USA.gov is the U.S. government's official web portal to all federal, state and local government web resources and services.